Content
SEND FEEDBACK

Daily
Averages
Monthly
Summary
United States of America

CHICAGO, ILLINOIS


Home > North America > United States > Illinois
Elevation: 205 meters     Latitude: 41 59N     Longitude: 087 54W

WEATHER
 
SELECT A DAY
Number of Records: 197,935;   Date Range: 7/8/95 - 10/24/14
 
SHARE

PRINT THIS DATA

[ ← Previous Day ]
WEATHER ALMANAC - 9 NOVEMBER, 2013
[ Next Day → ]
[ °F ]   °C
Weather ElementAverageHighLow
Temperature10.5 °C14.4 °C (1:52 pm)5.6 °C (11:52 pm)
Dewpoint1.4 °C3.9 °C (10:52 am)-5 °C (10:52 pm)
Humidity53.9 %63 % (5:52 am)43 % (10:52 pm)
Barometer1013.9 hPa1020 hPa (11:52 pm)1011.2 hPa (3:52 am)
Wind Speed24.1 km/h38.9 km/h (1:52 am)
Wind Gust51.8 km/h (1:52 pm)
Weather ElementAverage
Visibility16.1 km
Wind DirectionWSW (252.6 °)

Weather ElementTotal
Precipitation---
Heating Degree Days8.3 (Base 18.3)
Averaged from 23 records on 9 November, 2013
WEATHER CONDITIONS BREAKOUT
WIND DIRECTION BREAKOUT
WEATHER BY HOUR - 9 NOVEMBER, 2013
[ °F ]   °C
Local TimeTemperatureDewpointHumidityBarometerVisibilityWind DirectionWind SpeedGust SpeedPrecipitationEventsConditions
1:52 AM9.4 °C0 °C52 %1012.2 hPa16.1 kmSSW (200°)38.9 km/h50.1 km/hClear
2:52 AM9.4 °C0.6 °C54 %1011.9 hPa16.1 kmSSW (200°)27.8 km/h42.6 km/hClear
3:52 AM8.9 °C1.1 °C58 %1011.2 hPa16.1 kmSSW (200°)20.4 km/h33.3 km/hClear
4:52 AM8.9 °C1.7 °C61 %1011.2 hPa16.1 kmSW (220°)18.5 km/h33.3 km/hClear
5:52 AM8.9 °C2.2 °C63 %1011.2 hPa16.1 kmSSW (210°)20.4 km/h40.7 km/hClear
6:52 AM8.9 °C2.2 °C63 %1011.2 hPa16.1 kmSW (220°)16.7 km/h29.6 km/hClear
7:52 AM10 °C2.8 °C61 %1011.9 hPa16.1 kmSW (230°)20.4 km/h27.8 km/hPartly Cloudy
8:52 AM10.6 °C3.3 °C61 %1011.5 hPa16.1 kmWSW (240°)22.2 km/h33.3 km/hClear
9:52 AM12.2 °C3.3 °C55 %1011.9 hPa16.1 kmWest (260°)22.2 km/h44.4 km/hClear
10:52 AM13.3 °C3.9 °C53 %1012.2 hPa16.1 kmWSW (250°)22.2 km/h38.9 km/hClear
11:52 AM13.9 °C3.3 °C49 %1012.2 hPa16.1 kmWest (270°)24.1 km/h42.6 km/hMostly Cloudy
12:52 PM13.9 °C2.8 °C47 %1011.9 hPa16.1 kmWest (260°)33.3 km/h48.1 km/hScattered Clouds
1:52 PM14.4 °C2.8 °C46 %1012.2 hPa16.1 kmWest (270°)24.1 km/h51.8 km/hMostly Cloudy
2:52 PM13.9 °C2.8 °C47 %1012.9 hPa16.1 kmWest (270°)37 km/h51.8 km/hMostly Cloudy
3:52 PM13.3 °C2.8 °C49 %1013.9 hPa16.1 kmWNW (290°)27.8 km/h46.3 km/hPartly Cloudy
4:52 PM12.2 °C2.8 °C53 %1014.6 hPa16.1 kmWest (260°)22.2 km/h33.3 km/hClear
5:52 PM11.1 °C2.8 °C57 %1015.2 hPa16.1 kmWest (260°)16.7 km/h27.8 km/hClear
6:52 PM10.6 °C1.7 °C54 %1016.6 hPa16.1 kmWest (270°)25.9 km/h48.1 km/hClear
7:52 PM9.4 °C1.7 °C59 %1016.9 hPa16.1 kmWNW (290°)20.4 km/h31.5 km/hClear
8:52 PM8.9 °C0.6 °C56 %1017.6 hPa16.1 kmWest (280°)16.7 km/h33.3 km/hClear
9:52 PM7.8 °C-1.7 °C51 %1017.9 hPa16.1 kmWest (280°)22.2 km/h46.3 km/hPartly Cloudy
10:52 PM6.7 °C-5 °C43 %1019 hPa16.1 kmWNW (290°)33.3 km/h46.3 km/hClear
11:52 PM5.6 °C-5 °C47 %1020 hPa16.1 kmWNW (290°)20.4 km/h40.7 km/hClear
Hourly data recorded from KPWK, located 0 kilometers away from Chicago, Illinois







STORIES FROM OUR PARTNERS